Regional Weather Roundup
Issued by NWS

Home | Current Version | Previous Version | Graphics & Text | Print | Product List | Glossary On
Versions: 1 2 3 4 5 6 7 8 9 10 11 12 13 14 15 16 17 18 19 20 21 22 23 24 25 26 27
000
ASUS45 KSLC 230510
RWRUT

UTAH REGIONAL WEATHER ROUNDUP
NATIONAL WEATHER SERVICE SALT LAKE CITY UT
1100 PM MDT TUE APR 22 2014

UTZ001>011-023>025-230600-

NORTHERN UTAH

CITY           SKY/WX    TMP DP  RH WIND       PRES   REMARKS
HILL AFB       LGT SNOW  36  34  93 E9        29.86F WCI  29
LOGAN          LGT RAIN  39  35  86 SE5       29.86R
OGDEN          LGT RAIN  38  34  85 E10       29.86F WCI  31
PROVO AIRPORT  CLOUDY    43  36  75 N18       29.88R
SALT LAKE CITY LGT RAIN  40  40 100 N13       29.88S WCI  32
VERNAL         CLOUDY    57  32  38 W28G38    29.61F
WENDOVER       CLOUDY    45  25  45 NW13      29.87S
HEBER CITY     MIX PCPN  41  34  75 S12       29.81R
WEST JORDAN    CLOUDY    39  39 100 NW8       29.89S WCI  34

$$

UTZ012>022-026-027-230600-

SOUTHERN UTAH

CITY           SKY/WX    TMP DP  RH WIND       PRES   REMARKS
BRYCE CANYON   PTCLDY    47  11  23 SW17G30   29.87R
CEDAR CITY     MOCLDY    49  19  30 NE5       29.83R
MILFORD        PTCLDY    48  29  47 NE17G25   29.83R
MOAB/CYNLANDS  CLEAR     69  23  17 SW16      29.60S
PRICE          CLOUDY    54  26  34 W17G25    29.70F
ST GEORGE      CLOUDY    68  10  10 W17       29.74R

$$

REGIONAL REPORTS     COLORADO/ARIZONA

CITY           SKY/WX    TMP DP  RH WIND       PRES   REMARKS
CRAIG, CO      MOCLDY    57  32  38 SW12      29.69F
GRAND JUNCTION CLOUDY    70  23  17 SW22G32   29.62S
RIFLE          CLOUDY    68  24  19 SW14G22   29.66F
MONTROSE       CLOUDY    66  24  20 S9        29.74F
CORTEZ         CLEAR     61  24  24 S13       29.84R
PAGE, AZ       PTCLDY    70  20  15 SW9G23    29.73R
GRAND CANYON   CLEAR     49  16  26 SW8       29.91R
KINGMAN        CLEAR     61  -2   8 SW12      29.82R
FLAGSTAFF      PTCLDY    53  25  33 W12G23    29.93R

$$

REGIONAL REPORTS    NEVADA/IDAHO/WYOMING

CITY           SKY/WX    TMP DP  RH WIND       PRES   REMARKS
LAS VEGAS, NV  CLEAR     69  13  11 SW14      29.71R
ELY            PTCLDY    35  19  52 NW12      29.94R WCI  27
ELKO           PTCLDY    34  31  88 W6        29.94R WCI  29
POCATELLO, ID  CLOUDY    41  36  82 SW18      29.79R
BURLEY         LGT RAIN  38  35  89 W20       29.80R WCI  28
EVANSTON, WY   LGT SNOW  34  31  88 W17       29.82R FOG     WCI  23
ROCK SPRINGS   LGT RAIN  43  37  79 SW22G31   29.72R

$$



USA.gov is the U.S. government's official web portal to all federal, state and local government web resources and services.